Tracking 30918 objects as of 2-Jul-2025
HD Live streaming from Space Station
objects crossing your sky now

STARLINK-30264

Track STARLINK-30264 now!
10-day predictions
STARLINK-30264 is classified as:


NORAD ID: 57534
Int'l Code: 2023-115P
Perigee: 494.0 km
Apogee: 496.4 km
Inclination: 43.0 °
Period: 94.4 minutes
Semi major axis: 6866 km
RCS: Unknown
Launch date: August 8, 2023
Source: United States (US)
Launch site: AIR FORCE WESTERN TEST RANGE (AFWTR)
Your satellite tracking list
OSCAR 30 DEB
Track 1 satellite(s)




NASA's NSSDC Master Catalog

Two Line Element Set (TLE):
1 57534U 23115P   25183.04266294  .00002388  00000-0  10111-3 0  9996
2 57534  43.0002 183.5344 0001743 268.4912  91.5739 15.25905305107030
Source of the keplerian elements: AFSPC